Location: Newark
(41.0400°S, 62.7845°W)
Time: 03:02:00
(UTC+00:00)

Transit 2A - Pass Details

Date: 03 December 2021
Orbit: 591 x 967 km, 66.7° (Epoch: 20 January)

Event Time Altitude Azimuth Distance (km) Brightness Sun altitude
Rises 02:08:12 0° 219° (SW) 2,865 10.4 -21.6°
Reaches altitude 10° 02:10:33 10° 228° (SW) 1,967 9.1 -21.9°
Maximum altitude 02:14:32 34° 293° (WNW) 1,023 6.6 -22.2°
Enters shadow 02:15:15 32° 314° (NW) 1,072 6.6 -22.3°
Drops below altitude 10° 02:18:41 10° 358° (N) 2,049 - -22.5°
Sets 02:21:11 0° 6° (N) 3,004 - -22.7°
